DMSP 5D-2 F13 DEB, 42294

Orbit data source: Space-Track

DMSP 5D-2 F13 DEB, 42294 is space debris in SSO originally from a launch on Fri, 24 Mar 1995 UTC launched from the Air Force Western Test Range (AFWTR). Debris objects in space refer to the collection of defunct objects orbiting the Earth. Examples of debris include non-operational satellites, rocket bodies, and fragments generated from explosions, collisions, or faulty payload assembly.

Loading next visibility...
Identifier
42294, 1995-015HL
Orbit
SSO
Country
Flag of USUS
Related business
Manufacturer
Unknown
Mission
Spacecraft
Bus & Motor
Unknown
Mass
Unknown
Launch date (UTC)
1995-03-24 (31 years ago)
Launch vehicle
Unknown
Launch site
Air Force Western Test Range (AFWTR)
Object type
Payload
Rocket body
Debris
Shape & HBR
Unknown shape, 0.1 m
Radar Cross Section
Small (<0.1 m²)

Expand to show TLE details & history
Last TLE update: 3 days ago

TLE from 3 days ago
0 DMSP 5D-2 F13 DEB
1 42294U 95015HL  25339.08044619  .00176102  00000-0  16967-1 0  9992
2 42294  98.8736  21.6408 0010718  67.4540 292.7809 14.91921955546433
Epoch: 2025-12-05T01:55Z
TLE epoch observation values (Epoch: 2025-12-05T01:55:50.550Z)
Latitude
-0.00001°
Longitude
-81.44749°
Altitude
592.063 km
Speed
7.566 km/s
True Right ascension
01h 26m 33s
True Declination
0° 00' 00"
Sunlit
Object was in full shadow at epoch
Visualization orbit readout
Latitude
Unknown
Longitude
Unknown
Altitude
Unknown
Speed
Unknown
Apparent Right ascension
Unknown
Apparent Declination
Unknown
Sunlit
N/A
Visualization observer readout
Local Sidereal Time
13:32:30
Azimuth
Unknown
Elevation
Unknown
Doppler factor
Unknown
Orbital elements
Apogee altitude
596.482 km
Perigee altitude
581.547 km
Semi-major axis
6,967.152 km
Eccentricity
0.00107
Inclination
98.8736°
RAAN
21.6408°
Arg. of periapsis
67.454°
True anomaly
292.6676°
Mean anomaly
292.7809°
Eccentric anomaly
292.72426°
Mean motion
3.73216 °/min
Orbital period
96.46 mins
BSTAR
0.016967
Loading maneuver chart data...
Computing Atmospheric mass density...

Documentation

Showing up to 5 results
|